Home > Weather > Kinshasa > Past weeks

Flag for Congo Dem. Rep. Past Weather in Kinshasa, Congo Dem. Rep. — Yesterday and Last 2 Weeks

Now
86 °F

Passing clouds.


Feels Like: 89 °F
Forecast: 71 / 88 °F
Wind: 6 mph from Southwest

Location: Brazzaville / Maya-Maya

Current Time: Aug 27, 2016 at 1:03:58 PM

Latest Report: Aug 27, 2016 at 12:00 PM


Visibility: 5 mi

Pressure: 29.95 "Hg

Humidity: 55%

Dew Point: 68 °F

Location of KinshasaLocation

Past Weather in Kinshasa — Graph

°F

Kinshasa Temperature Yesterday

Maximum temperature yesterday: 90 °F (at 4:00 PM)
Minimum temperature yesterday: 72 °F (at 2:00 AM)
Average temperature yesterday: 78 °F

High & Low Weather Summary for the Past Weeks

 TemperatureHumidityPressure
High90 °F (Aug 16, 3:00 PM)94% (Aug 25, 8:56 AM)30.07 "Hg (Aug 25, 8:56 AM)
Low70 °F (Aug 13, 4:00 AM)46% (Aug 20, 4:00 PM)29.83 "Hg (Aug 13, 4:00 PM)
Average77 °F72%29.95 "Hg
* Reported Aug 12 11:00 AM — Aug 27 11:00 AM, Kinshasa, Weather by CustomWeather, © 2016

Note: Actual official high and low records may vary slightly from our data, if they occured in-between our weather recording intervals... More about our weather records

Advertising

Kinshasa Weather History for the Previous 24 Hours

Scroll right to see more
 ConditionsComfort  
Time TempWeatherWind HumidityBarometerVisibility
11:00 AM
Sat, Aug 27
82 °FPassing clouds.5 mph62%29.98 "Hg5 mi
10:00 AM79 °FPassing clouds.6 mph70%30.01 "Hg4 mi
9:00 AM77 °FScattered clouds.3 mph74%30.04 "Hg4 mi
8:00 AM73 °FScattered clouds.6 mph83%30.04 "Hg4 mi
7:00 AM73 °FScattered clouds.3 mph83%30.01 "Hg5 mi
6:00 AM73 °FOvercast.3 mph78%29.98 "Hg5 mi
5:00 AM73 °FPassing clouds.5 mph78%29.98 "Hg5 mi
4:00 AM73 °FClear.3 mph83%29.95 "Hg5 mi
3:00 AM75 °FClear.3 mph78%29.95 "Hg5 mi
2:00 AM73 °FPassing clouds.3 mph83%29.95 "Hg5 mi
1:00 AM75 °FPassing clouds.3 mph78%29.95 "Hg5 mi
11:00 PM
Fri, Aug 26
79 °FClear.2 mph70%29.98 "Hg5 mi
10:00 PM79 °FClear.3 mph70%29.95 "Hg5 mi
9:00 PM81 °FClear.5 mph66%29.95 "Hg5 mi
8:00 PM81 °FClear.5 mph62%29.92 "Hg4 mi
7:00 PM82 °FClear.6 mph58%29.89 "Hg5 mi
6:00 PM84 °FClear.8 mph55%29.86 "Hg5 mi
5:00 PM88 °FPassing clouds.5 mph49%29.86 "Hg5 mi
4:00 PM90 °FPassing clouds.3 mph46%29.86 "Hg5 mi
3:00 PM88 °FScattered clouds.3 mph52%29.83 "Hg5 mi
2:00 PM86 °FScattered clouds.8 mph55%29.86 "Hg5 mi
Weather by CustomWeather, © 2016

See weather overviewHow to use our weather pages